Location: Zapote
(9.9191°N, 84.0597°W)
Time: 17:37:39
(UTC-06:00)

Transit 2A - Pass Details

Date: 02 March 2021
Orbit: 602 x 957 km, 66.7° (Epoch: 16 April)

Event Time Altitude Azimuth Distance (km) Brightness Sun altitude
Rises 15:40:03 0° 160° (SSE) 3,563 9.4 29.9°
Reaches altitude 10° 15:44:30 10° 131° (SE) 2,556 8.5 28.8°
Maximum altitude 15:46:37 12° 110° (ESE) 2,381 8.2 28.3°
Drops below altitude 10° 15:48:41 10° 88° (E) 2,480 8.2 27.8°
Sets 15:52:48 0° 58° (ENE) 3,323 8.8 26.8°
